map of EGC home
EGC - Airport
Location
City:  Bergerac, Aquitaine, France
Name:Roumaniere
ICAO:LFBE
IATA:EGC

Details
Type:Airport (Aerodrome, Airfield)
Use:Public/Civil
Latitude:4449'28"N (44.824431)
Longitude:031'14"E (0.520525)
Elevation:171 ft (52 m)
Variation:0.20E (WMM2015 magnetic declination)
0.12 annual change
Runways:2
Longest:7234 × 148 ft (2205 × 45 m)

Time
Time Zone:UTC+1 (DST+2)
Local Time:

Weather
METAR:LFBE 230600Z AUTO 00000KT 7000 -DZ BKN008 BKN015 OVC020 06/05 Q1008 TEMPO 4000 -SHRA BKN010TCU
TAF:LFBE 230500Z 2306/2406 27004KT 9999 BKN030 BKN060
TEMPO 2306/2309 4000 -SHRA BKN010TCU
BECMG 2309/2311 CAVOK PROB40
TEMPO 2400/2406 3000 MIFG

Related Locations
Nearby:
Farthest:CHT: 12273 mi / 19752 km
Waitangi [Tuuta], CIT, NZ

Find:

   beyond  
but within

Other Information
Maps:
NOTAMs:
Links:
Sources:

  
flag of France
flag of Aquitaine
  

Sectional Chart

Flight Planning
at skyvector.com

Satellite Image

Google Maps Satellite view

 

Copyright © 2004-2017 Karl L. Swartz. All rights reserved.
The Great Circle Mapper name and logo are trademarks of the Great Circle Mapper.
All other trademarks mentioned herein belong to their respective owners.
Please see credits for attibutions and further copyright information.

  Follow gcmap on Facebook Follow gcmap on Twitter Follow gcmap on Google+ GCmap on LinkedIn

hCard Microformat

Geo Microformat